Location: Peterborough
(44.3091°N, 78.3197°W)
Time: 01:39:23
(UTC-04:00)

Vanguard 2 Rocket - Pass Details

Date: 24 March 2023
Orbit: 554 x 3314 km, 32.9° (Epoch: 02 June)

Event Time Altitude Azimuth Distance (km) Brightness Sun altitude
Rises 21:27:12 0° 238° (WSW) 3,789 10.6 -21.0°
Reaches altitude 10° 21:29:33 10° 231° (SW) 3,103 9.9 -21.4°
Maximum altitude 21:36:56 41° 163° (SSE) 2,276 8.5 -22.6°
Enters shadow 21:40:44 33° 126° (SE) 2,907 8.8 -23.2°
